Location: Obersdorf
(47.4079°N, 10.2781°E)
Time: 02:30:46
(UTC+01:00)

XW-2C - Pass Details

Date: 08 December 2021
Orbit: 503 x 523 km, 97.5° (Epoch: 16 January)

Event Time Altitude Azimuth Distance (km) Brightness Sun altitude
Rises 17:33:50 0° 173° (S) 2,617 ? -10.6°
Reaches altitude 10° 17:35:56 10° 176° (S) 1,739 ? -11.0°
Maximum altitude 17:39:39 65° 258° (WSW) 576 ? -11.5°
Drops below altitude 10° 17:43:26 10° 342° (NNW) 1,766 ? -12.1°
Sets 17:45:35 0° 345° (NNW) 2,663 ? -12.5°
